Погода в Могочине

Россия / Томская область     57°42′40″N   83°34′52″E
темп.,
°C
ветер,
м/с
пор.,
м/с
влажн.,
%
обл.,
%
осадки,
мм/ч
давл.,
гПа
погр.,
м
23 апреля, пт
пт2301:00−6ссз11975 0.0 104610
04:00−7ссз11975 0.0 104612
07:00−6с12925 0.0 104748
10:00+1ссв12765 0.0 1048310
13:00+5св126614 0.0 10461042
16:00+6ссв125767 0.0 10451336
19:00+5св127362 0.0 104458
22:00−3св11955 0.0 104410
24 апреля, сб
сб2401:00−4всв11966 0.0 104410
04:00−5всв11975 0.0 104210
07:00−3ссв11915 0.0 104134
10:00+3с23705 0.0 1039502
13:00+6с22545 0.0 10361085
16:00+7ссз22515 0.0 10341344
19:00+5ссз23725 0.0 103377
22:00−2с01935 0.0 103410
25 апреля, вс
вс2501:00−3зюз11955 0.0 103210
04:00−3зюз119611 0.0 103211
07:00−1зюз12886 0.0 103245
10:00+6з12685 0.0 1031394
13:00+8з235696 0.1 10311568
16:00+8юз135693 0.1 10301265
19:00+7ююз116927 0.1 102919
22:00+2юз11815 0.0 103010
26 апреля, пн
пн2601:00+1ююз228433 0.0 103011
04:00+1ю1286100 0.0 102911
07:00+1ююв2487100 0.0 1029107
10:00+6ююв3671100 0.0 1028363
13:00+9ююв4660100 0.0 1026956
16:00+10ююв476091 0.0 10241364
19:00+9ююв4961100 0.0 10211024
22:00+7ююв51471100 0.0 1019618
27 апреля, вт
вт2701:00+6ю41177100 0.3 1016681
04:00+5ю39882 0.9 1014311
07:00+5з51187100 1.4 1014678
10:00+7з51173100 0.0 10151068
13:00+11з61047100 0.4 10152384
16:00+11з5104978 0.2 10162101
19:00+11з395268 0.3 10161745
22:00+7юз2369100 0.0 101743